{"data":{"norad_id":59490,"intl_designator":"2024-071G","name":"STARLINK-31670","alt_names":[],"object_type":"PAYLOAD","status":"ACTIVE","operator":null,"country":"US","launch_date":"2024-04-13","launch_site_code":"AFETR","launch_vehicle":null,"mission":null,"orbit_class":"UNKNOWN","rcs_meters":null,"size_class":null,"mass_kg":null,"dimensions":null,"purposes":["comms"],"wikipedia_slug":null,"has_3d_model":false,"image_url":null,"decayed_at":null,"tle_current":{"epoch":"2026-05-25T01:25:06.100032Z","epoch_age_seconds":76755,"freshness":"FRESH","line1":"1 59490U 24071G   26145.05909838  .00001713  00000+0  71731-4 0  9995","line2":"2 59490  43.0003 279.8619 0000844 305.5525  54.5248 15.27589966119751","mean_motion":15.27589966,"eccentricity":8.44e-5,"inclination_deg":43.0003,"raan_deg":279.8619,"arg_perigee_deg":305.5525,"mean_anomaly_deg":54.5248,"bstar":7.1731e-5,"rev_number":11975,"period_min":94.266133717194,"perigee_km":482.44017282477,"apogee_km":483.59833600052,"semimajor_km":6861.1562544126,"source":"CELESTRAK","updated_at":"2026-05-25T13:38:18.953702Z"}}}